Hourly Data Report for September 27, 2017

All times are specified in Local Standard Time (LST). Add 1 hour to adjust for Daylight Saving Time where and when it is observed.

GJOA HAVEN A
NUNAVUT

68°38'08.000" N
95°51'01.000" W
46.90 m
2302337
71597
YHK

Download Data

Hourly Data (September 2017)
Hourly Data Report for September 27, 2017
Temp Definition
°C
Dew Point Temp Definition
°C
Rel Hum Definition
%
Wind Dir Definition
10's deg

Wind Spd Definition
km/h
Visibility Definition
km
Stn Press Definition
kPa
Hmdx Definition


Wind Chill Definition


Weather Definition


TIME
00:00 Legend Double Dagger 3.6 3.6 100 23 21 0.4 100.00     Rain,Fog
01:00 Legend Double Dagger 2.9 2.9 100 25 21 0.6 100.01     Rain,Fog
02:00 Legend Double Dagger 2.0 2.0 100 26 24 9.7 100.03     Rain,Fog
03:00 Legend Double Dagger 1.8 1.8 100 28 21 16.1 100.08     Rain
04:00 Legend Double Dagger 1.6 1.6 100 29 28 16.1 100.12     Rain
05:00 Legend Double Dagger 0.8 0.8 100 30 26 9.7 100.18     Fog
06:00 Legend Double Dagger 0.0 0.0 100 30 32 0.6 100.26   -7 Rain,Fog
07:00 Legend Double Dagger -0.4 -0.4 100 32 30 2.0 100.32   -7 Fog
08:00 Legend Double Dagger -0.3 -0.3 100 31 32 3.6 100.40   -7 Fog
09:00 Legend Double Dagger -0.5 -0.6 99 31 30 12.9 100.50   -7 LegendNANA
10:00 Legend Double Dagger -0.7 -1.4 95 32 39 16.1 100.57   -8 LegendNANA
11:00 Legend Double Dagger -0.7 -2.0 91 32 39 16.1 100.64   -8 LegendNANA
12:00 Legend Double Dagger -0.9 -2.8 87 33 39 16.1 100.72   -9 LegendNANA
13:00 Legend Double Dagger -0.8 -2.2 90 32 35 16.1 100.82   -8 LegendNANA
14:00 Legend Double Dagger -0.9 -2.9 86 30 32 16.1 100.89   -8 LegendNANA
15:00 Legend Double Dagger -0.9 -3.4 83 30 35 16.1 100.95   -8 LegendNANA
16:00 Legend Double Dagger -1.5 -3.9 84 30 34 16.1 101.01   -9 LegendNANA
17:00 Legend Double Dagger -1.8 -4.3 83 30 34 16.1 101.03   -9 LegendNANA
18:00 Legend Double Dagger -2.0 -3.4 90 28 17 16.1 101.02   -7 LegendNANA
19:00 Legend Double Dagger -0.9 -3.0 86 28 34 16.1 100.95   -8 LegendNANA
20:00 Legend Double Dagger -2.2 -3.3 92 30 35 3.2 101.01   -10 Snow
21:00 Legend Double Dagger -2.6 -5.6 80 30 35 16.1 101.05   -10 LegendNANA
22:00 Legend Double Dagger -2.4 -5.2 81 28 35 16.1 101.08   -10 LegendNANA
23:00 Legend Double Dagger -2.2 -3.6 90 29 34 6.4 101.09   -10 Snow

Notes on Data Quality.

Legend

  • E = Estimated
  • M = Missing
  • NA = Not Available
  • ‡ = Partner data that is not subject to review by the National Climate Archives
Date modified: